QPF
0.00 0.01 0.01 0.01 0.03 0.03 0.04 0.05 0.04 0.05 0.05 0.06 0.07 0.07 0.08 0.08 0.07 0.06 0.07 0.09 0.07 0.06 0.07 0.10 0.09 0.09 0.10 0.08 0.07 0.07 0.06 0.06 0.07 0.10 0.08 0.05 0.03 0.04 0.04 0.04 0.06 0.04 0.03
0.00 0.00 0.00 0.01 0.01 0.02 0.03 0.04 0.04 0.04 0.05 0.07 0.10 0.15 0.18 0.17 0.12 0.10 0.11 0.10 0.08 0.07 0.07 0.11 0.11 0.10 0.11 0.10 0.07 0.08 0.08 0.06 0.07 0.08 0.09 0.07 0.05 0.04 0.03 0.04 0.06 0.04 0.04
0.01 0.01 0.01 0.01 0.01 0.02 0.03 0.03 0.03 0.04 0.07 0.10 0.13 0.19 0.22 0.21 0.19 0.16 0.11 0.08 0.08 0.08 0.08 0.09 0.10 0.10 0.08 0.08 0.08 0.08 0.09 0.08 0.06 0.04 0.05 0.04 0.04 0.04 0.04 0.02 0.02 0.03 0.03
0.01 0.01 0.01 0.01 0.01 0.02 0.03 0.03 0.04 0.06 0.10 0.16 0.16 0.17 0.19 0.15 0.15 0.16 0.12 0.11 0.09 0.10 0.10 0.10 0.11 0.10 0.08 0.09 0.08 0.06 0.09 0.11 0.07 0.04 0.03 0.02 0.02 0.04 0.04 0.03 0.01 0.01 0.03
0.00 0.00 0.01 0.01 0.01 0.02 0.02 0.03 0.05 0.07 0.13 0.19 0.22 0.19 0.16 0.13 0.14 0.14 0.13 0.11 0.09 0.09 0.10 0.12 0.13 0.11 0.08 0.09 0.08 0.07 0.07 0.08 0.07 0.05 0.03 0.02 0.02 0.03 0.04 0.04 0.03 0.02 0.01
0.00 0.01 0.01 0.02 0.02 0.02 0.03 0.04 0.07 0.09 0.14 0.23 0.22 0.18 0.14 0.13 0.12 0.12 0.13 0.12 0.10 0.08 0.09 0.10 0.10 0.09 0.07 0.08 0.08 0.08 0.09 0.08 0.07 0.06 0.04 0.03 0.02 0.01 0.03 0.03 0.03 0.03 0.02
0.00 0.00 0.01 0.02 0.02 0.03 0.04 0.05 0.07 0.09 0.11 0.20 0.17 0.12 0.13 0.16 0.13 0.13 0.12 0.11 0.09 0.07 0.07 0.07 0.07 0.07 0.07 0.07 0.08 0.08 0.08 0.07 0.07 0.06 0.04 0.02 0.02 0.01 0.01 0.01 0.01 0.02 0.01
0.00 0.00 0.00 0.01 0.02 0.04 0.05 0.04 0.05 0.07 0.08 0.12 0.11 0.09 0.11 0.13 0.12 0.13 0.12 0.10 0.09 0.08 0.08 0.07 0.08 0.07 0.07 0.07 0.10 0.08 0.07 0.06 0.06 0.04 0.05 0.04 0.02 0.02 0.01 0.01 0.02 0.03 0.03
0.00 0.00 0.00 0.00 0.02 0.04 0.05 0.05 0.04 0.05 0.07 0.08 0.07 0.12 0.13 0.11 0.11 0.12 0.13 0.11 0.08 0.07 0.08 0.09 0.07 0.08 0.09 0.10 0.10 0.10 0.09 0.07 0.06 0.05 0.06 0.05 0.03 0.03 0.02 0.01 0.02 0.03 0.04
0.00 0.00 0.00 0.00 0.01 0.02 0.03 0.03 0.03 0.05 0.07 0.09 0.09 0.13 0.17 0.13 0.11 0.09 0.10 0.10 0.10 0.09 0.09 0.09 0.09 0.08 0.08 0.08 0.09 0.09 0.09 0.08 0.07 0.07 0.07 0.06 0.04 0.04 0.03 0.03 0.02 0.03 0.03
0.00 0.00 0.01 0.00 0.00 0.01 0.02 0.02 0.03 0.04 0.05 0.08 0.09 0.12 0.14 0.13 0.12 0.09 0.07 0.09 0.11 0.11 0.10 0.10 0.10 0.09 0.08 0.07 0.08 0.07 0.07 0.08 0.08 0.07 0.06 0.06 0.05 0.05 0.04 0.04 0.03 0.03 0.03
0.00 0.00 0.00 0.00 0.00 0.00 0.01 0.01 0.02 0.03 0.04 0.07 0.08 0.10 0.09 0.09 0.09 0.08 0.06 0.08 0.11 0.11 0.10 0.10 0.10 0.09 0.08 0.08 0.07 0.07 0.06 0.06 0.07 0.07 0.07 0.07 0.05 0.04 0.04 0.04 0.03 0.03 0.03
0.01 0.01 0.01 0.01 0.00 0.00 0.01 0.01 0.01 0.01 0.02 0.04 0.07 0.10 0.11 0.09 0.08 0.08 0.08 0.09 0.11 0.11 0.09 0.09 0.09 0.08 0.07 0.07 0.07 0.07 0.07 0.06 0.08 0.09 0.08 0.07 0.06 0.06 0.05 0.05 0.04 0.05 0.04
0.02 0.01 0.02 0.01 0.00 0.00 0.01 0.01 0.01 0.01 0.02 0.03 0.06 0.09 0.09 0.10 0.09 0.09 0.11 0.11 0.12 0.11 0.10 0.09 0.10 0.10 0.09 0.08 0.08 0.08 0.08 0.08 0.08 0.08 0.07 0.06 0.06 0.06 0.06 0.05 0.05 0.06 0.06
0.01 0.01 0.01 0.01 0.01 0.01 0.01 0.01 0.01 0.01 0.02 0.02 0.04 0.05 0.06 0.09 0.11 0.12 0.14 0.14 0.12 0.11 0.11 0.10 0.11 0.10 0.10 0.08 0.09 0.08 0.08 0.09 0.09 0.08 0.06 0.05 0.05 0.05 0.05 0.04 0.06 0.06 0.05
0.00 0.00 0.00 0.01 0.01 0.02 0.02 0.02 0.02 0.02 0.02 0.02 0.03 0.04 0.05 0.07 0.12 0.15 0.17 0.17 0.17 0.17 0.15 0.14 0.12 0.11 0.09 0.08 0.09 0.10 0.09 0.09 0.08 0.07 0.07 0.06 0.05 0.05 0.04 0.03 0.03 0.04 0.05
0.00 0.00 0.00 0.01 0.01 0.02 0.03 0.04 0.03 0.02 0.02 0.03 0.03 0.02 0.03 0.07 0.11 0.15 0.17 0.20 0.22 0.21 0.20 0.16 0.13 0.11 0.10 0.09 0.09 0.10 0.11 0.11 0.10 0.10 0.08 0.06 0.05 0.06 0.06 0.06 0.05 0.04 0.04
0.01 0.01 0.01 0.01 0.01 0.02 0.03 0.03 0.03 0.02 0.02 0.02 0.02 0.02 0.02 0.03 0.07 0.13 0.16 0.20 0.23 0.21 0.20 0.18 0.16 0.14 0.13 0.11 0.10 0.10 0.11 0.13 0.14 0.12 0.11 0.10 0.09 0.08 0.08 0.08 0.07 0.06 0.07
0.01 0.01 0.02 0.01 0.01 0.01 0.03 0.04 0.03 0.03 0.03 0.03 0.03 0.03 0.03 0.05 0.06 0.09 0.12 0.16 0.17 0.18 0.18 0.20 0.17 0.15 0.16 0.15 0.13 0.12 0.11 0.14 0.15 0.16 0.14 0.11 0.10 0.10 0.10 0.09 0.09 0.09 0.09
0.01 0.01 0.01 0.02 0.01 0.01 0.01 0.02 0.03 0.03 0.04 0.05 0.06 0.05 0.05 0.07 0.09 0.11 0.14 0.16 0.16 0.17 0.20 0.20 0.18 0.15 0.14 0.14 0.13 0.13 0.12 0.12 0.13 0.16 0.18 0.18 0.16 0.14 0.12 0.10 0.09 0.07 0.05
0.01 0.01 0.01 0.02 0.03 0.02 0.01 0.02 0.02 0.03 0.04 0.05 0.05 0.06 0.07 0.09 0.10 0.10 0.11 0.12 0.13 0.13 0.15 0.17 0.15 0.13 0.12 0.12 0.12 0.12 0.10 0.11 0.12 0.13 0.13 0.13 0.13 0.11 0.08 0.07 0.05 0.05 0.04
0.01 0.02 0.02 0.03 0.03 0.03 0.03 0.03 0.03 0.03 0.04 0.05 0.06 0.06 0.06 0.08 0.10 0.11 0.10 0.09 0.10 0.10 0.10 0.12 0.13 0.12 0.11 0.11 0.11 0.10 0.09 0.08 0.10 0.12 0.11 0.10 0.09 0.07 0.06 0.04 0.03 0.03 0.03
0.02 0.01 0.02 0.02 0.03 0.03 0.03 0.04 0.04 0.04 0.04 0.07 0.08 0.09 0.09 0.12 0.12 0.11 0.10 0.08 0.07 0.07 0.05 0.06 0.07 0.09 0.10 0.11 0.10 0.09 0.07 0.06 0.06 0.07 0.08 0.07 0.07 0.08 0.09 0.08 0.07 0.06 0.05
0.03 0.02 0.03 0.03 0.03 0.03 0.04 0.04 0.04 0.04 0.04 0.06 0.08 0.10 0.12 0.12 0.12 0.13 0.13 0.09 0.07 0.06 0.06 0.07 0.07 0.08 0.08 0.07 0.07 0.06 0.07 0.07 0.07 0.07 0.08 0.10 0.10 0.10 0.10 0.10 0.10 0.09 0.09
0.02 0.03 0.03 0.03 0.03 0.03 0.03 0.03 0.03 0.03 0.04 0.06 0.08 0.10 0.09 0.08 0.08 0.09 0.11 0.11 0.09 0.08 0.07 0.08 0.09 0.09 0.09 0.09 0.09 0.08 0.07 0.08 0.10 0.10 0.10 0.10 0.09 0.09 0.08 0.08 0.09 0.09 0.10
0.02 0.02 0.03 0.03 0.04 0.03 0.04 0.04 0.04 0.04 0.05 0.06 0.06 0.07 0.07 0.07 0.07 0.07 0.07 0.07 0.07 0.06 0.06 0.06 0.06 0.06 0.07 0.08 0.08 0.08 0.08 0.08 0.08 0.08 0.07 0.08 0.07 0.07 0.07 0.06 0.06 0.05 0.05
MSLP
1009.02 1009.45 1009.92 1010.42 1010.93 1011.45 1011.95 1012.44 1012.90 1013.33 1013.71 1014.04 1014.31 1014.52 1014.70 1014.87 1015.04 1015.25 1015.50 1015.81 1016.17 1016.57 1016.97 1017.36 1017.72 1018.02 1018.28 1018.50 1018.68 1018.85 1019.02 1019.19 1019.37 1019.55 1019.71 1019.85 1019.95 1020.00 1020.01 1019.98 1019.94 1019.91 1019.90
1009.00 1009.35 1009.75 1010.18 1010.63 1011.09 1011.56 1012.04 1012.51 1012.97 1013.40 1013.79 1014.12 1014.38 1014.59 1014.77 1014.93 1015.12 1015.34 1015.62 1015.95 1016.33 1016.74 1017.15 1017.53 1017.87 1018.15 1018.39 1018.58 1018.74 1018.90 1019.06 1019.22 1019.39 1019.56 1019.70 1019.81 1019.86 1019.87 1019.82 1019.75 1019.67 1019.60
1008.93 1009.22 1009.55 1009.93 1010.32 1010.74 1011.18 1011.65 1012.14 1012.64 1013.13 1013.58 1013.98 1014.31 1014.57 1014.77 1014.93 1015.09 1015.27 1015.50 1015.78 1016.13 1016.51 1016.90 1017.29 1017.64 1017.93 1018.18 1018.37 1018.53 1018.67 1018.81 1018.97 1019.13 1019.30 1019.45 1019.58 1019.66 1019.68 1019.64 1019.55 1019.43 1019.31
1008.78 1009.02 1009.31 1009.64 1010.00 1010.38 1010.81 1011.28 1011.79 1012.33 1012.87 1013.40 1013.87 1014.26 1014.58 1014.81 1014.98 1015.11 1015.25 1015.43 1015.65 1015.93 1016.27 1016.63 1017.00 1017.34 1017.64 1017.89 1018.09 1018.24 1018.38 1018.51 1018.66 1018.82 1018.99 1019.17 1019.32 1019.42 1019.47 1019.45 1019.36 1019.23 1019.07
1008.55 1008.76 1009.03 1009.33 1009.67 1010.04 1010.45 1010.92 1011.45 1012.02 1012.61 1013.19 1013.73 1014.19 1014.55 1014.81 1014.99 1015.11 1015.22 1015.33 1015.49 1015.72 1015.99 1016.32 1016.66 1016.99 1017.29 1017.55 1017.75 1017.92 1018.06 1018.19 1018.34 1018.50 1018.69 1018.88 1019.05 1019.19 1019.27 1019.27 1019.20 1019.06 1018.87
1008.26 1008.46 1008.72 1009.02 1009.34 1009.71 1010.11 1010.58 1011.10 1011.68 1012.30 1012.91 1013.49 1013.99 1014.39 1014.69 1014.88 1014.99 1015.07 1015.15 1015.26 1015.42 1015.65 1015.94 1016.26 1016.59 1016.90 1017.17 1017.40 1017.58 1017.73 1017.88 1018.03 1018.20 1018.40 1018.60 1018.80 1018.97 1019.08 1019.10 1019.05 1018.91 1018.71
1007.96 1008.16 1008.42 1008.73 1009.06 1009.41 1009.81 1010.25 1010.75 1011.31 1011.91 1012.52 1013.10 1013.61 1014.04 1014.35 1014.55 1014.67 1014.74 1014.80 1014.89 1015.02 1015.23 1015.50 1015.81 1016.15 1016.47 1016.77 1017.02 1017.24 1017.41 1017.58 1017.74 1017.92 1018.12 1018.33 1018.54 1018.73 1018.87 1018.93 1018.89 1018.77 1018.57
1007.72 1007.92 1008.19 1008.50 1008.83 1009.17 1009.53 1009.94 1010.39 1010.89 1011.44 1012.00 1012.55 1013.04 1013.45 1013.77 1013.98 1014.12 1014.20 1014.27 1014.37 1014.51 1014.72 1014.99 1015.32 1015.67 1016.02 1016.35 1016.64 1016.89 1017.09 1017.27 1017.45 1017.63 1017.83 1018.05 1018.26 1018.46 1018.62 1018.71 1018.70 1018.60 1018.42
1007.58 1007.79 1008.06 1008.37 1008.68 1009.00 1009.32 1009.66 1010.04 1010.45 1010.91 1011.38 1011.85 1012.29 1012.67 1012.98 1013.21 1013.37 1013.48 1013.59 1013.72 1013.89 1014.13 1014.44 1014.79 1015.17 1015.56 1015.93 1016.25 1016.53 1016.75 1016.95 1017.13 1017.31 1017.51 1017.72 1017.93 1018.14 1018.31 1018.42 1018.45 1018.39 1018.23
1007.59 1007.79 1008.06 1008.35 1008.64 1008.92 1009.18 1009.44 1009.72 1010.02 1010.36 1010.72 1011.09 1011.45 1011.77 1012.06 1012.29 1012.48 1012.64 1012.81 1013.00 1013.23 1013.52 1013.87 1014.26 1014.68 1015.10 1015.49 1015.85 1016.14 1016.39 1016.60 1016.78 1016.96 1017.14 1017.34 1017.54 1017.75 1017.93 1018.06 1018.13 1018.11 1018.00
1007.77 1007.95 1008.19 1008.45 1008.69 1008.92 1009.11 1009.29 1009.46 1009.65 1009.85 1010.08 1010.33 1010.60 1010.86 1011.11 1011.34 1011.56 1011.78 1012.01 1012.27 1012.58 1012.93 1013.33 1013.77 1014.22 1014.66 1015.07 1015.44 1015.75 1016.01 1016.21 1016.40 1016.56 1016.73 1016.92 1017.11 1017.31 1017.49 1017.65 1017.75 1017.77 1017.72
1008.10 1008.24 1008.43 1008.64 1008.83 1008.99 1009.12 1009.21 1009.28 1009.35 1009.44 1009.54 1009.68 1009.84 1010.03 1010.24 1010.47 1010.71 1010.98 1011.28 1011.61 1011.98 1012.40 1012.85 1013.32 1013.79 1014.24 1014.66 1015.03 1015.35 1015.61 1015.82 1016.00 1016.16 1016.33 1016.50 1016.68 1016.87 1017.06 1017.22 1017.35 1017.42 1017.42
1008.54 1008.63 1008.76 1008.89 1009.02 1009.12 1009.18 1009.20 1009.19 1009.16 1009.14 1009.14 1009.17 1009.24 1009.36 1009.52 1009.73 1009.99 1010.30 1010.65 1011.04 1011.47 1011.93 1012.42 1012.91 1013.39 1013.85 1014.27 1014.64 1014.96 1015.22 1015.44 1015.62 1015.79 1015.96 1016.13 1016.30 1016.49 1016.67 1016.84 1016.98 1017.09 1017.14
1009.04 1009.06 1009.12 1009.18 1009.24 1009.28 1009.28 1009.25 1009.17 1009.08 1008.98 1008.89 1008.83 1008.82 1008.86 1008.98 1009.17 1009.43 1009.75 1010.13 1010.57 1011.04 1011.54 1012.04 1012.55 1013.03 1013.49 1013.90 1014.27 1014.59 1014.87 1015.11 1015.32 1015.51 1015.69 1015.86 1016.04 1016.22 1016.40 1016.56 1016.70 1016.82 1016.90
1009.54 1009.50 1009.48 1009.48 1009.47 1009.45 1009.41 1009.33 1009.22 1009.08 1008.92 1008.77 1008.64 1008.56 1008.54 1008.61 1008.77 1009.01 1009.33 1009.73 1010.19 1010.68 1011.19 1011.71 1012.21 1012.70 1013.15 1013.56 1013.94 1014.28 1014.58 1014.85 1015.11 1015.33 1015.55 1015.75 1015.94 1016.11 1016.28 1016.43 1016.55 1016.66 1016.74
1010.03 1009.93 1009.83 1009.75 1009.69 1009.62 1009.54 1009.44 1009.30 1009.13 1008.94 1008.75 1008.57 1008.43 1008.36 1008.38 1008.50 1008.72 1009.03 1009.42 1009.88 1010.38 1010.90 1011.42 1011.92 1012.40 1012.85 1013.28 1013.67 1014.04 1014.39 1014.72 1015.02 1015.31 1015.57 1015.81 1016.01 1016.19 1016.34 1016.46 1016.55 1016.63 1016.69
1010.46 1010.30 1010.15 1010.01 1009.89 1009.78 1009.67 1009.55 1009.40 1009.22 1009.01 1008.79 1008.57 1008.40 1008.29 1008.26 1008.34 1008.53 1008.83 1009.21 1009.67 1010.16 1010.68 1011.20 1011.71 1012.19 1012.65 1013.09 1013.51 1013.92 1014.32 1014.71 1015.08 1015.43 1015.75 1016.03 1016.26 1016.43 1016.56 1016.65 1016.70 1016.73 1016.74
1010.82 1010.63 1010.43 1010.23 1010.07 1009.93 1009.80 1009.66 1009.51 1009.32 1009.11 1008.87 1008.64 1008.45 1008.30 1008.25 1008.31 1008.48 1008.76 1009.13 1009.58 1010.08 1010.60 1011.13 1011.64 1012.13 1012.60 1013.06 1013.51 1013.96 1014.41 1014.86 1015.29 1015.70 1016.07 1016.39 1016.64 1016.82 1016.92 1016.97 1016.97 1016.94 1016.89
1011.11 1010.90 1010.66 1010.44 1010.24 1010.07 1009.92 1009.77 1009.62 1009.44 1009.23 1009.00 1008.77 1008.57 1008.43 1008.37 1008.42 1008.59 1008.87 1009.25 1009.70 1010.21 1010.74 1011.27 1011.78 1012.28 1012.77 1013.24 1013.71 1014.18 1014.67 1015.16 1015.64 1016.09 1016.50 1016.85 1017.11 1017.28 1017.37 1017.37 1017.32 1017.23 1017.12
1011.33 1011.12 1010.87 1010.62 1010.40 1010.21 1010.05 1009.90 1009.75 1009.59 1009.40 1009.20 1008.99 1008.82 1008.70 1008.66 1008.73 1008.92 1009.22 1009.61 1010.09 1010.61 1011.15 1011.69 1012.22 1012.72 1013.20 1013.67 1014.14 1014.62 1015.11 1015.61 1016.10 1016.57 1017.00 1017.35 1017.61 1017.78 1017.84 1017.82 1017.72 1017.57 1017.40
1011.51 1011.31 1011.06 1010.80 1010.57 1010.37 1010.21 1010.07 1009.94 1009.80 1009.65 1009.49 1009.33 1009.21 1009.14 1009.15 1009.27 1009.50 1009.84 1010.27 1010.78 1011.32 1011.88 1012.43 1012.96 1013.45 1013.92 1014.37 1014.81 1015.26 1015.72 1016.19 1016.66 1017.11 1017.52 1017.86 1018.11 1018.26 1018.31 1018.26 1018.13 1017.94 1017.73
1011.67 1011.49 1011.26 1011.01 1010.78 1010.59 1010.44 1010.32 1010.21 1010.11 1010.01 1009.91 1009.82 1009.77 1009.77 1009.85 1010.04 1010.33 1010.73 1011.21 1011.76 1012.33 1012.91 1013.47 1013.99 1014.46 1014.89 1015.29 1015.67 1016.06 1016.45 1016.86 1017.27 1017.66 1018.03 1018.34 1018.57 1018.70 1018.74 1018.68 1018.54 1018.33 1018.09
1011.85 1011.70 1011.50 1011.28 1011.07 1010.90 1010.77 1010.67 1010.60 1010.55 1010.51 1010.48 1010.47 1010.49 1010.58 1010.75 1011.01 1011.38 1011.83 1012.37 1012.95 1013.56 1014.15 1014.71 1015.21 1015.65 1016.03 1016.36 1016.67 1016.96 1017.26 1017.57 1017.89 1018.21 1018.51 1018.77 1018.97 1019.09 1019.13 1019.07 1018.93 1018.73 1018.49
1012.09 1011.99 1011.83 1011.64 1011.46 1011.32 1011.22 1011.16 1011.14 1011.14 1011.15 1011.19 1011.25 1011.36 1011.53 1011.77 1012.11 1012.54 1013.05 1013.63 1014.25 1014.88 1015.48 1016.03 1016.50 1016.90 1017.22 1017.48 1017.69 1017.89 1018.07 1018.28 1018.49 1018.72 1018.95 1019.15 1019.32 1019.43 1019.48 1019.44 1019.33 1019.15 1018.93
1012.43 1012.38 1012.27 1012.13 1012.00 1011.90 1011.83 1011.81 1011.82 1011.86 1011.92 1012.01 1012.13 1012.29 1012.52 1012.82 1013.21 1013.69 1014.24 1014.85 1015.49 1016.13 1016.73 1017.27 1017.72 1018.07 1018.34 1018.52 1018.65 1018.75 1018.83 1018.93 1019.05 1019.19 1019.34 1019.50 1019.64 1019.75 1019.81 1019.80 1019.73 1019.60 1019.41
1012.90 1012.90 1012.85 1012.77 1012.69 1012.62 1012.59 1012.59 1012.63 1012.69 1012.77 1012.88 1013.03 1013.22 1013.48 1013.81 1014.22 1014.72 1015.29 1015.91 1016.55 1017.19 1017.79 1018.31 1018.73 1019.06 1019.28 1019.41 1019.47 1019.49 1019.49 1019.50 1019.54 1019.61 1019.71 1019.83 1019.95 1020.06 1020.15 1020.18 1020.16 1020.08 1019.93
Thickness
5809 5806 5801 5797 5791 5785 5779 5774 5769 5765 5760 5757 5754 5752 5751 5752 5751 5751 5750 5748 5747 5745 5743 5746 5744 5743 5744 5744 5744 5742 5740 5741 5742 5739 5737 5741 5744 5744 5743 5743 5742 5742 5739
5806 5802 5798 5795 5790 5784 5779 5774 5768 5764 5760 5758 5756 5754 5753 5752 5751 5751 5749 5747 5746 5745 5745 5744 5744 5744 5743 5742 5742 5740 5741 5742 5742 5738 5734 5733 5737 5739 5746 5744 5742 5743 5742
5804 5801 5797 5794 5790 5784 5779 5774 5768 5764 5760 5757 5753 5751 5749 5748 5748 5747 5747 5747 5746 5745 5745 5744 5744 5744 5744 5743 5741 5741 5739 5738 5741 5743 5738 5734 5731 5738 5743 5744 5745 5744 5743
5807 5803 5798 5793 5789 5785 5780 5774 5768 5764 5760 5756 5752 5749 5746 5745 5747 5747 5746 5746 5745 5745 5745 5744 5743 5743 5745 5744 5742 5743 5742 5739 5739 5740 5741 5742 5741 5734 5735 5741 5746 5744 5742
5806 5802 5798 5793 5789 5785 5779 5773 5767 5762 5759 5756 5752 5748 5747 5747 5746 5746 5745 5744 5744 5744 5744 5744 5744 5743 5744 5744 5743 5743 5742 5742 5741 5741 5741 5739 5738 5739 5734 5734 5740 5743 5745
5803 5799 5796 5792 5787 5783 5777 5771 5764 5760 5757 5754 5751 5748 5747 5746 5745 5744 5743 5742 5743 5743 5744 5744 5744 5743 5745 5744 5743 5742 5741 5742 5742 5742 5742 5740 5738 5738 5738 5735 5736 5739 5744
5799 5795 5791 5787 5782 5778 5773 5768 5763 5758 5756 5753 5750 5748 5747 5746 5744 5743 5743 5742 5742 5743 5744 5745 5743 5744 5744 5744 5743 5742 5742 5741 5739 5739 5741 5742 5743 5744 5742 5738 5738 5738 5742
5796 5792 5789 5784 5780 5775 5771 5767 5762 5758 5755 5753 5750 5748 5748 5747 5746 5745 5744 5743 5744 5745 5745 5743 5743 5742 5743 5743 5742 5743 5742 5740 5739 5740 5739 5740 5742 5743 5742 5740 5737 5733 5737
5793 5791 5788 5783 5779 5774 5770 5766 5761 5757 5755 5753 5750 5748 5747 5746 5745 5744 5743 5743 5743 5744 5743 5742 5741 5741 5741 5741 5741 5741 5740 5739 5738 5739 5737 5737 5740 5740 5741 5741 5739 5733 5729
5790 5789 5786 5783 5779 5775 5770 5766 5762 5758 5756 5753 5751 5750 5748 5746 5745 5744 5743 5742 5741 5742 5741 5740 5740 5739 5739 5739 5738 5738 5738 5737 5736 5736 5735 5735 5737 5738 5738 5738 5738 5737 5732
5786 5785 5783 5781 5777 5774 5770 5765 5761 5758 5755 5753 5751 5750 5748 5747 5745 5743 5742 5741 5740 5739 5739 5738 5737 5737 5737 5737 5736 5736 5736 5734 5734 5733 5732 5731 5732 5733 5734 5734 5734 5733 5731
5784 5782 5781 5778 5775 5771 5769 5765 5762 5758 5756 5753 5751 5749 5747 5746 5743 5742 5741 5740 5739 5738 5737 5736 5735 5735 5735 5734 5734 5732 5733 5732 5730 5730 5729 5728 5729 5727 5729 5730 5730 5729 5728
5779 5778 5776 5773 5771 5769 5767 5765 5762 5759 5757 5755 5751 5747 5745 5743 5742 5740 5739 5738 5737 5736 5735 5734 5733 5732 5732 5732 5731 5730 5729 5728 5728 5727 5725 5724 5723 5722 5723 5722 5724 5724 5725
5774 5773 5771 5770 5768 5766 5764 5762 5760 5759 5757 5754 5750 5746 5743 5742 5740 5739 5737 5736 5735 5733 5732 5731 5731 5730 5729 5729 5728 5727 5725 5724 5723 5722 5721 5720 5719 5718 5718 5717 5716 5717 5716
5769 5768 5768 5766 5764 5763 5761 5760 5758 5757 5755 5751 5748 5744 5742 5740 5738 5736 5734 5733 5732 5731 5730 5728 5727 5727 5726 5725 5724 5722 5721 5718 5717 5717 5716 5715 5714 5713 5712 5713 5711 5710 5709
5763 5763 5762 5761 5760 5759 5758 5756 5755 5754 5751 5748 5744 5742 5739 5737 5735 5733 5731 5729 5727 5726 5725 5724 5723 5722 5721 5719 5717 5716 5715 5713 5711 5710 5710 5710 5708 5705 5703 5703 5702 5701 5700
5757 5757 5756 5756 5756 5756 5756 5753 5752 5751 5747 5744 5742 5739 5736 5732 5731 5729 5726 5723 5720 5719 5718 5717 5716 5714 5712 5711 5710 5708 5708 5707 5705 5704 5704 5705 5706 5702 5701 5697 5694 5693 5690
5751 5751 5752 5752 5752 5753 5753 5751 5749 5746 5743 5739 5737 5735 5732 5728 5726 5723 5720 5716 5714 5712 5711 5710 5708 5707 5704 5703 5702 5701 5701 5701 5699 5698 5697 5697 5695 5694 5692 5692 5690 5688 5685
5745 5745 5746 5748 5748 5748 5748 5746 5744 5741 5738 5734 5731 5729 5727 5724 5720 5717 5714 5711 5708 5705 5703 5702 5700 5698 5695 5694 5694 5693 5695 5693 5691 5689 5688 5687 5684 5681 5680 5681 5679 5678 5675
5739 5739 5740 5741 5740 5741 5741 5739 5737 5734 5731 5728 5726 5724 5722 5718 5715 5711 5708 5706 5703 5700 5697 5694 5691 5690 5687 5684 5684 5685 5688 5685 5682 5679 5677 5673 5671 5670 5669 5671 5669 5667 5664
5730 5731 5732 5731 5731 5732 5732 5730 5728 5726 5724 5722 5720 5717 5715 5712 5709 5705 5702 5699 5696 5692 5689 5685 5682 5680 5678 5676 5676 5676 5679 5678 5675 5672 5669 5664 5660 5658 5657 5657 5657 5653 5652
5721 5722 5722 5721 5722 5723 5723 5721 5718 5718 5717 5715 5712 5709 5708 5706 5702 5698 5694 5692 5689 5684 5680 5677 5674 5673 5669 5667 5666 5666 5665 5665 5664 5661 5658 5652 5648 5647 5645 5644 5641 5640 5640
5711 5712 5712 5711 5711 5712 5712 5710 5708 5709 5708 5705 5701 5699 5697 5695 5692 5689 5685 5683 5680 5678 5674 5671 5668 5664 5661 5657 5654 5653 5652 5652 5651 5646 5641 5638 5636 5635 5634 5629 5628 5629 5630
5700 5701 5702 5701 5700 5700 5700 5699 5698 5698 5697 5693 5690 5687 5684 5681 5678 5676 5675 5673 5671 5669 5665 5662 5658 5654 5650 5648 5646 5645 5643 5639 5638 5635 5629 5627 5625 5624 5620 5618 5617 5616 5613
5689 5690 5690 5690 5689 5689 5689 5689 5688 5687 5685 5682 5678 5674 5671 5668 5662 5657 5653 5653 5648 5650 5651 5648 5646 5643 5637 5628 5627 5632 5631 5628 5626 5624 5623 5621 5618 5614 5611 5608 5604 5601 5598
5678 5679 5678 5678 5677 5677 5677 5676 5677 5677 5674 5670 5667 5665 5661 5656 5652 5647 5638 5630 5631 5630 5630 5629 5628 5623 5618 5616 5615 5614 5613 5612 5611 5614 5612 5607 5604 5600 5597 5594 5590 5587 5583